Location: Clanezzo
(45.7500°N, 9.6000°E)
Time: 03:16:41
(UTC+00:00)

EO-79 - Pass Details

Date: 08 July 2022
Orbit: 588 x 603 km, 98.0° (Epoch: 13 August)

Event Time Altitude Azimuth Distance (km) Brightness Sun altitude
Rises 02:06:29 0° 1° (N) 2,862 ? -12.7°
Reaches altitude 10° 02:08:57 10° 349° (NNW) 1,956 ? -12.5°
Maximum altitude 02:12:24 25° 294° (WNW) 1,241 ? -12.1°
Enters shadow 02:15:04 14° 247° (WSW) 1,700 ? -11.8°
